Time,TemperatureF,DewpointF,PressureIn,WindDirection,WindDirectionDegrees,WindSpeedMPH,WindSpeedGustMPH,Humidity,HourlyPrecipIn,Conditions,Clouds,dailyrainin,SoftwareType,DateUTC
2014-12-17 00:03:00,43.5,34.1,29.97,SW,225,10.3,13.4,69,0.00,,,0.00,WUHU21623XXSP,2014-12-17 08:03:00,
2014-12-17 00:08:00,43.5,34.1,29.97,SW,225,4.5,15.4,69,0.00,,,0.00,WUHU21623XXSP,2014-12-17 08:08:00,
2014-12-17 00:13:00,43.7,34.2,29.97,WSW,247,1.6,15.4,69,0.00,,,0.00,WUHU21623XXSP,2014-12-17 08:13:00,
2014-12-17 00:18:00,43.9,34.4,29.97,WSW,247,0.0,13.6,69,0.00,,,0.00,WUHU21623XXSP,2014-12-17 08:18:00,
2014-12-17 00:24:00,43.9,34.8,29.96,SW,225,3.4,8.5,70,0.00,,,0.00,WUHU21623XXSP,2014-12-17 08:24:00,
2014-12-17 00:29:00,43.9,34.8,29.96,WSW,247,0.0,10.7,70,0.00,,,0.00,WUHU21623XXSP,2014-12-17 08:29:00,
2014-12-17 00:34:00,44.1,34.9,29.97,WSW,247,0.0,10.7,70,0.00,,,0.00,WUHU21623XXSP,2014-12-17 08:34:00,
2014-12-17 00:39:00,44.2,35.4,29.97,WSW,247,0.0,7.6,71,0.00,,,0.00,WUHU21623XXSP,2014-12-17 08:39:00,
2014-12-17 00:44:00,44.2,35.8,29.97,WSW,247,4.7,8.5,72,0.00,,,0.00,WUHU21623XXSP,2014-12-17 08:44:00,
2014-12-17 00:49:00,44.1,35.6,29.97,WSW,247,7.8,8.5,72,0.00,,,0.00,WUHU21623XXSP,2014-12-17 08:49:00,
2014-12-17 00:54:00,44.1,35.9,29.96,SW,225,5.1,11.2,73,0.00,,,0.00,WUHU21623XXSP,2014-12-17 08:54:00,
2014-12-17 00:59:00,44.1,35.9,29.96,SW,225,1.8,11.4,73,0.00,,,0.00,WUHU21623XXSP,2014-12-17 08:59:00,
2014-12-17 01:04:00,43.9,35.8,29.96,SSW,202,0.0,11.4,73,0.00,,,0.00,WUHU21623XXSP,2014-12-17 09:04:00,
2014-12-17 01:09:00,44.1,35.9,29.96,SW,225,4.3,10.5,73,0.00,,,0.00,WUHU21623XXSP,2014-12-17 09:09:00,
2014-12-17 01:14:00,44.1,35.9,29.96,WSW,247,0.0,9.6,73,0.00,,,0.00,WUHU21623XXSP,2014-12-17 09:14:00,
2014-12-17 01:19:00,43.9,35.8,29.96,SW,225,0.0,10.1,73,0.00,,,0.00,WUHU21623XXSP,2014-12-17 09:19:00,
2014-12-17 01:24:00,43.9,35.8,29.96,West,270,0.0,10.1,73,0.00,,,0.00,WUHU21623XXSP,2014-12-17 09:24:00,
2014-12-17 01:29:00,44.1,35.9,29.96,WSW,247,2.7,6.9,73,0.00,,,0.00,WUHU21623XXSP,2014-12-17 09:29:00,
2014-12-17 01:34:00,44.2,36.1,29.96,WSW,247,0.0,8.3,73,0.00,,,0.00,WUHU21623XXSP,2014-12-17 09:34:00,
2014-12-17 01:39:00,44.4,36.3,29.96,WSW,247,3.8,8.3,73,0.00,,,0.00,WUHU21623XXSP,2014-12-17 09:39:00,
2014-12-17 01:44:00,44.4,36.3,29.96,WSW,247,0.0,6.3,73,0.00,,,0.00,WUHU21623XXSP,2014-12-17 09:44:00,
2014-12-17 01:49:00,44.4,36.3,29.95,WSW,247,0.0,5.1,73,0.00,,,0.00,WUHU21623XXSP,2014-12-17 09:49:00,
2014-12-17 01:54:00,44.6,36.4,29.95,WSW,247,0.0,3.6,73,0.00,,,0.00,WUHU21623XXSP,2014-12-17 09:54:00,
2014-12-17 01:59:00,44.6,36.4,29.96,WSW,247,0.0,5.4,73,0.00,,,0.00,WUHU21623XXSP,2014-12-17 09:59:00,
2014-12-17 02:04:00,44.6,36.4,29.96,WSW,247,0.0,7.8,73,0.00,,,0.00,WUHU21623XXSP,2014-12-17 10:04:00,
2014-12-17 02:09:00,44.8,36.6,29.96,SW,225,9.8,9.8,73,0.00,,,0.00,WUHU21623XXSP,2014-12-17 10:09:00,
2014-12-17 02:14:00,44.8,37.0,29.96,SSW,202,4.9,9.8,74,0.00,,,0.00,WUHU21623XXSP,2014-12-17 10:14:00,
2014-12-17 02:19:00,44.4,37.0,29.96,SW,225,0.0,12.3,75,0.00,,,0.00,WUHU21623XXSP,2014-12-17 10:19:00,
2014-12-17 02:24:00,44.6,37.1,29.96,SW,225,0.0,12.3,75,0.00,,,0.00,WUHU21623XXSP,2014-12-17 10:24:00,
2014-12-17 02:29:00,44.4,37.0,29.96,SW,225,0.0,9.6,75,0.00,,,0.00,WUHU21623XXSP,2014-12-17 10:29:00,
2014-12-17 02:34:00,44.4,37.0,29.96,SW,225,5.4,9.6,75,0.02,,,0.02,WUHU21623XXSP,2014-12-17 10:34:00,
2014-12-17 02:39:00,44.6,37.3,29.95,SW,225,0.0,6.7,75,0.02,,,0.02,WUHU21623XXSP,2014-12-17 10:39:00,
2014-12-17 02:44:00,44.4,37.0,29.95,SSW,202,10.5,10.5,75,0.02,,,0.02,WUHU21623XXSP,2014-12-17 10:44:00,
2014-12-17 02:49:00,44.2,37.1,29.94,SSW,202,6.7,11.9,76,0.02,,,0.02,WUHU21623XXSP,2014-12-17 10:49:00,
2014-12-17 02:54:00,43.9,36.8,29.94,SSW,202,9.2,13.0,76,0.02,,,0.02,WUHU21623XXSP,2014-12-17 10:54:00,
2014-12-17 02:59:00,43.9,36.8,29.94,SSW,202,4.5,13.0,76,0.02,,,0.02,WUHU21623XXSP,2014-12-17 10:59:00,
2014-12-17 03:04:00,44.1,37.0,29.94,SSW,202,2.9,9.2,76,0.02,,,0.02,WUHU21623XXSP,2014-12-17 11:04:00,
2014-12-17 03:09:00,44.2,37.1,29.95,SW,225,6.7,9.2,76,0.02,,,0.02,WUHU21623XXSP,2014-12-17 11:09:00,
2014-12-17 03:14:00,44.4,37.3,29.95,SW,225,8.9,11.9,76,0.02,,,0.02,WUHU21623XXSP,2014-12-17 11:14:00,
2014-12-17 03:19:00,44.4,37.3,29.95,SW,225,6.0,11.9,76,0.02,,,0.02,WUHU21623XXSP,2014-12-17 11:19:00,
2014-12-17 03:24:00,44.4,37.3,29.95,SW,225,6.7,10.3,76,0.02,,,0.02,WUHU21623XXSP,2014-12-17 11:24:00,
2014-12-17 03:29:00,44.4,37.3,29.94,SW,225,7.8,10.1,76,0.00,,,0.02,WUHU21623XXSP,2014-12-17 11:29:00,
2014-12-17 03:34:00,44.4,37.3,29.94,SW,225,3.1,7.8,76,0.00,,,0.02,WUHU21623XXSP,2014-12-17 11:34:00,
2014-12-17 03:39:00,44.6,37.5,29.93,SW,225,0.0,6.9,76,0.00,,,0.02,WUHU21623XXSP,2014-12-17 11:39:00,
2014-12-17 03:44:00,44.6,37.5,29.93,WSW,247,0.0,11.0,76,0.00,,,0.02,WUHU21623XXSP,2014-12-17 11:44:00,
2014-12-17 03:49:00,44.8,37.7,29.93,WSW,247,0.0,11.0,76,0.00,,,0.02,WUHU21623XXSP,2014-12-17 11:49:00,
2014-12-17 03:54:00,44.8,37.3,29.94,WSW,247,3.1,4.9,75,0.00,,,0.02,WUHU21623XXSP,2014-12-17 11:54:00,
2014-12-17 03:59:00,44.6,37.1,29.93,SW,225,3.8,8.9,75,0.00,,,0.02,WUHU21623XXSP,2014-12-17 11:59:00,
2014-12-17 04:04:00,44.4,37.3,29.94,SW,225,10.3,11.6,76,0.00,,,0.02,WUHU21623XXSP,2014-12-17 12:04:00,
2014-12-17 04:09:00,44.4,37.6,29.94,South,180,6.5,13.4,77,0.00,,,0.02,WUHU21623XXSP,2014-12-17 12:09:00,
2014-12-17 04:14:00,44.4,37.6,29.94,SW,225,7.4,15.4,77,0.00,,,0.02,WUHU21623XXSP,2014-12-17 12:14:00,
2014-12-17 04:19:00,44.2,37.8,29.94,SSW,202,2.5,15.4,78,0.00,,,0.02,WUHU21623XXSP,2014-12-17 12:19:00,
2014-12-17 04:24:00,44.1,37.6,29.94,SSW,202,1.8,15.0,78,0.02,,,0.04,WUHU21623XXSP,2014-12-17 12:24:00,
2014-12-17 04:29:00,44.2,37.8,29.94,SSW,202,8.3,15.0,78,0.02,,,0.04,WUHU21623XXSP,2014-12-17 12:29:00,
2014-12-17 04:34:00,44.4,38.0,29.94,SSW,202,10.7,10.7,78,0.02,,,0.04,WUHU21623XXSP,2014-12-17 12:34:00,
2014-12-17 04:39:00,44.2,37.8,29.94,SSW,202,0.0,10.7,78,0.02,,,0.04,WUHU21623XXSP,2014-12-17 12:39:00,
2014-12-17 04:44:00,44.2,37.5,29.93,SW,225,0.0,9.8,77,0.02,,,0.04,WUHU21623XXSP,2014-12-17 12:44:00,
2014-12-17 04:49:00,44.2,37.5,29.93,SW,225,1.1,5.8,77,0.02,,,0.04,WUHU21623XXSP,2014-12-17 12:49:00,
2014-12-17 04:54:00,44.2,37.5,29.94,SW,225,5.8,14.1,77,0.02,,,0.04,WUHU21623XXSP,2014-12-17 12:54:00,
2014-12-17 04:59:00,44.4,37.6,29.93,SSW,202,6.9,14.1,77,0.02,,,0.04,WUHU21623XXSP,2014-12-17 12:59:00,
2014-12-17 05:05:00,44.4,37.6,29.93,SW,225,2.5,14.1,77,0.02,,,0.04,WUHU21623XXSP,2014-12-17 13:05:00,
2014-12-17 05:10:00,44.4,37.6,29.93,SW,225,2.9,14.1,77,0.02,,,0.04,WUHU21623XXSP,2014-12-17 13:10:00,
2014-12-17 05:15:00,44.6,37.5,29.94,SW,225,0.0,6.5,76,0.02,,,0.04,WUHU21623XXSP,2014-12-17 13:15:00,
2014-12-17 05:20:00,44.6,37.5,29.94,SSW,202,3.4,5.1,76,0.02,,,0.04,WUHU21623XXSP,2014-12-17 13:20:00,
2014-12-17 05:25:00,44.6,37.5,29.94,SW,225,3.8,5.8,76,0.00,,,0.04,WUHU21623XXSP,2014-12-17 13:25:00,
2014-12-17 05:30:00,44.4,37.6,29.94,SW,225,5.1,7.6,77,0.00,,,0.04,WUHU21623XXSP,2014-12-17 13:30:00,
2014-12-17 05:35:00,44.6,37.8,29.95,SW,225,3.6,13.0,77,0.02,,,0.06,WUHU21623XXSP,2014-12-17 13:35:00,
2014-12-17 05:40:00,44.8,38.0,29.95,SW,225,1.3,13.0,77,0.02,,,0.06,WUHU21623XXSP,2014-12-17 13:40:00,
2014-12-17 05:45:00,44.8,37.8,29.95,SSW,202,0.9,7.6,77,0.02,,,0.06,WUHU21623XXSP,2014-12-17 13:45:00,
2014-12-17 05:50:00,44.6,37.8,29.95,SW,225,3.4,12.5,77,0.02,,,0.06,WUHU21623XXSP,2014-12-17 13:50:00,
2014-12-17 05:55:00,44.4,37.6,29.95,SSW,202,1.8,12.5,77,0.02,,,0.06,WUHU21623XXSP,2014-12-17 13:55:00,
2014-12-17 06:00:00,44.4,37.6,29.95,SW,225,8.1,8.3,77,0.04,,,0.08,WUHU21623XXSP,2014-12-17 14:00:00,
2014-12-17 06:05:00,44.4,37.6,29.95,SW,225,1.8,14.1,77,0.04,,,0.08,WUHU21623XXSP,2014-12-17 14:05:00,
2014-12-17 06:10:00,44.6,37.8,29.96,SW,225,0.0,14.1,77,0.04,,,0.08,WUHU21623XXSP,2014-12-17 14:10:00,
2014-12-17 06:15:00,44.4,37.6,29.96,SW,225,6.0,14.1,77,0.04,,,0.08,WUHU21623XXSP,2014-12-17 14:15:00,
2014-12-17 06:20:00,44.6,38.0,29.96,SW,225,7.6,14.1,77,0.04,,,0.08,WUHU21623XXSP,2014-12-17 14:20:00,
2014-12-17 06:25:00,44.8,38.0,29.96,SSW,202,2.7,9.4,77,0.04,,,0.08,WUHU21623XXSP,2014-12-17 14:25:00,
2014-12-17 06:30:00,44.8,38.0,29.97,WSW,247,0.9,10.1,77,0.04,,,0.08,WUHU21623XXSP,2014-12-17 14:30:00,
2014-12-17 06:35:00,44.8,38.0,29.97,SW,225,3.4,16.1,77,0.04,,,0.10,WUHU21623XXSP,2014-12-17 14:35:00,
2014-12-17 06:40:00,44.6,37.8,29.97,SW,225,8.7,16.1,77,0.06,,,0.10,WUHU21623XXSP,2014-12-17 14:40:00,
2014-12-17 06:45:00,44.4,37.6,29.98,WSW,247,1.1,15.7,77,0.06,,,0.12,WUHU21623XXSP,2014-12-17 14:45:00,
2014-12-17 06:50:00,44.4,37.6,29.98,SW,225,5.4,15.4,77,0.08,,,0.14,WUHU21623XXSP,2014-12-17 14:50:00,
2014-12-17 06:55:00,44.2,37.5,29.98,WSW,247,0.0,14.5,77,0.10,,,0.16,WUHU21623XXSP,2014-12-17 14:55:00,
2014-12-17 07:00:00,44.4,37.6,29.98,SW,225,4.9,14.1,77,0.10,,,0.18,WUHU21623XXSP,2014-12-17 15:00:00,
2014-12-17 07:05:00,44.4,37.3,29.98,SW,225,0.4,14.1,76,0.10,,,0.18,WUHU21623XXSP,2014-12-17 15:05:00,
2014-12-17 07:10:00,44.2,37.1,29.98,SW,225,0.0,14.1,76,0.12,,,0.21,WUHU21623XXSP,2014-12-17 15:10:00,
2014-12-17 07:15:00,43.9,36.8,29.98,NNW,337,14.1,14.1,76,0.14,,,0.23,WUHU21623XXSP,2014-12-17 15:15:00,
2014-12-17 07:20:00,43.7,36.3,29.98,NNW,337,14.1,14.1,75,0.14,,,0.23,WUHU21623XXSP,2014-12-17 15:20:00,
2014-12-17 07:25:00,43.7,36.3,29.98,NNW,337,14.1,14.1,75,0.14,,,0.23,WUHU21623XXSP,2014-12-17 15:25:00,
2014-12-17 07:30:00,43.9,36.4,29.98,NNW,337,14.1,14.1,75,0.12,,,0.23,WUHU21623XXSP,2014-12-17 15:30:00,
2014-12-17 07:35:00,43.9,36.4,29.98,NNW,337,14.1,14.1,75,0.12,,,0.23,WUHU21623XXSP,2014-12-17 15:35:00,
2014-12-17 07:40:00,44.1,36.6,29.98,NNW,337,14.1,14.1,75,0.10,,,0.23,WUHU21623XXSP,2014-12-17 15:40:00,
2014-12-17 07:45:00,43.9,36.8,29.98,NNW,337,14.1,14.1,76,0.08,,,0.23,WUHU21623XXSP,2014-12-17 15:45:00,
2014-12-17 07:50:00,43.7,36.6,29.98,SSW,202,2.5,14.1,76,0.06,,,0.23,WUHU21623XXSP,2014-12-17 15:50:00,
2014-12-17 07:55:00,43.7,36.9,29.98,SSW,202,4.5,14.1,77,0.06,,,0.23,WUHU21623XXSP,2014-12-17 15:55:00,
2014-12-17 08:00:00,43.9,37.1,29.98,SSW,202,6.5,14.1,77,0.06,,,0.25,WUHU21623XXSP,2014-12-17 16:00:00,
2014-12-17 08:05:00,44.1,37.3,29.99,SW,225,0.0,14.1,77,0.04,,,0.25,WUHU21623XXSP,2014-12-17 16:05:00,
2014-12-17 08:10:00,44.1,37.3,29.99,SW,225,1.3,14.1,77,0.02,,,0.25,WUHU21623XXSP,2014-12-17 16:10:00,
2014-12-17 08:15:00,44.4,37.6,29.99,NNW,337,14.1,14.1,77,0.02,,,0.25,WUHU21623XXSP,2014-12-17 16:15:00,
2014-12-17 08:20:00,44.1,37.3,29.99,SW,225,0.0,14.1,77,0.02,,,0.25,WUHU21623XXSP,2014-12-17 16:20:00,
2014-12-17 08:25:00,44.2,37.5,29.98,WSW,247,4.9,14.1,77,0.02,,,0.25,WUHU21623XXSP,2014-12-17 16:25:00,
2014-12-17 08:30:00,44.2,37.5,29.99,WSW,247,9.4,22.1,77,0.02,,,0.25,WUHU21623XXSP,2014-12-17 16:30:00,
2014-12-17 08:35:00,44.4,37.6,30.00,WSW,247,12.1,22.1,77,0.02,,,0.25,WUHU21623XXSP,2014-12-17 16:35:00,
2014-12-17 08:40:00,44.4,37.6,30.00,WSW,247,6.7,12.5,77,0.02,,,0.25,WUHU21623XXSP,2014-12-17 16:40:00,
2014-12-17 08:45:00,44.6,37.8,30.00,SW,225,0.0,12.5,77,0.02,,,0.25,WUHU21623XXSP,2014-12-17 16:45:00,
2014-12-17 08:50:00,45.0,38.2,30.00,WSW,247,9.4,15.9,77,0.02,,,0.25,WUHU21623XXSP,2014-12-17 16:50:00,
2014-12-17 08:55:00,45.0,38.2,30.01,SW,225,0.0,15.9,77,0.02,,,0.25,WUHU21623XXSP,2014-12-17 16:55:00,
2014-12-17 09:00:00,45.1,38.4,30.01,WSW,247,4.7,13.2,77,0.00,,,0.25,WUHU21623XXSP,2014-12-17 17:00:00,
2014-12-17 09:05:00,45.1,38.4,30.01,SW,225,5.4,9.8,77,0.00,,,0.25,WUHU21623XXSP,2014-12-17 17:05:00,
2014-12-17 09:10:00,45.1,38.4,30.02,WSW,247,6.3,12.8,77,0.00,,,0.25,WUHU21623XXSP,2014-12-17 17:10:00,
2014-12-17 09:15:00,45.0,38.2,30.02,SW,225,4.9,16.1,77,0.00,,,0.25,WUHU21623XXSP,2014-12-17 17:15:00,
2014-12-17 09:20:00,45.1,38.7,30.02,SW,225,8.9,16.1,78,0.00,,,0.25,WUHU21623XXSP,2014-12-17 17:20:00,
2014-12-17 09:25:00,45.7,39.2,30.02,SW,225,0.0,14.1,78,0.00,,,0.25,WUHU21623XXSP,2014-12-17 17:25:00,
2014-12-17 09:31:00,45.7,38.9,30.02,SW,225,1.6,10.3,77,0.00,,,0.25,WUHU21623XXSP,2014-12-17 17:31:00,
2014-12-17 09:36:00,46.0,39.3,30.02,SW,225,0.0,10.3,77,0.00,,,0.25,WUHU21623XXSP,2014-12-17 17:36:00,
2014-12-17 09:41:00,46.0,38.9,30.02,SW,225,8.5,15.7,76,0.00,,,0.25,WUHU21623XXSP,2014-12-17 17:41:00,
2014-12-17 09:46:00,46.0,38.9,30.03,WSW,247,3.4,15.7,76,0.00,,,0.25,WUHU21623XXSP,2014-12-17 17:46:00,
2014-12-17 09:51:00,46.2,39.1,30.02,WSW,247,0.0,9.6,76,0.00,,,0.25,WUHU21623XXSP,2014-12-17 17:51:00,
2014-12-17 09:56:00,46.2,39.1,30.03,WSW,247,0.0,8.3,76,0.00,,,0.25,WUHU21623XXSP,2014-12-17 17:56:00,
2014-12-17 10:01:00,46.2,39.1,30.03,SW,225,0.0,9.2,76,0.00,,,0.25,WUHU21623XXSP,2014-12-17 18:01:00,
2014-12-17 10:06:00,46.2,39.1,30.03,SW,225,4.0,9.2,76,0.00,,,0.25,WUHU21623XXSP,2014-12-17 18:06:00,
2014-12-17 10:11:00,46.6,39.1,30.03,SW,225,0.0,7.2,75,0.00,,,0.25,WUHU21623XXSP,2014-12-17 18:11:00,
2014-12-17 10:16:00,46.6,39.1,30.03,SW,225,7.4,7.6,75,0.00,,,0.25,WUHU21623XXSP,2014-12-17 18:16:00,
2014-12-17 10:21:00,46.6,39.1,30.03,SW,225,4.3,7.6,75,0.00,,,0.25,WUHU21623XXSP,2014-12-17 18:21:00,
2014-12-17 10:26:00,46.9,39.4,30.02,SW,225,3.1,7.2,75,0.00,,,0.25,WUHU21623XXSP,2014-12-17 18:26:00,
2014-12-17 10:31:00,47.3,39.7,30.03,SW,225,2.5,7.2,75,0.00,,,0.25,WUHU21623XXSP,2014-12-17 18:31:00,
2014-12-17 10:36:00,47.3,39.4,30.03,SW,225,7.6,10.3,74,0.00,,,0.25,WUHU21623XXSP,2014-12-17 18:36:00,
2014-12-17 10:41:00,47.5,39.6,30.03,SW,225,1.6,10.3,74,0.00,,,0.25,WUHU21623XXSP,2014-12-17 18:41:00,
2014-12-17 10:46:00,47.8,39.5,30.03,SW,225,7.6,7.8,73,0.00,,,0.25,WUHU21623XXSP,2014-12-17 18:46:00,
2014-12-17 10:51:00,47.5,39.2,30.03,SW,225,0.0,9.6,73,0.00,,,0.25,WUHU21623XXSP,2014-12-17 18:51:00,
2014-12-17 10:56:00,47.1,38.9,30.03,SW,225,5.8,9.6,73,0.00,,,0.25,WUHU21623XXSP,2014-12-17 18:56:00,
2014-12-17 11:01:00,47.1,38.9,30.03,SW,225,5.6,8.7,73,0.00,,,0.25,WUHU21623XXSP,2014-12-17 19:01:00,
2014-12-17 11:06:00,47.1,38.9,30.03,SW,225,4.0,7.6,73,0.00,,,0.25,WUHU21623XXSP,2014-12-17 19:06:00,
2014-12-17 11:11:00,47.3,39.4,30.02,SW,225,0.0,8.3,74,0.00,,,0.25,WUHU21623XXSP,2014-12-17 19:11:00,
2014-12-17 11:16:00,47.1,39.2,30.03,SW,225,0.0,8.3,74,0.00,,,0.25,WUHU21623XXSP,2014-12-17 19:16:00,
2014-12-17 11:21:00,47.1,39.2,30.03,SW,225,0.0,8.5,74,0.00,,,0.25,WUHU21623XXSP,2014-12-17 19:21:00,
2014-12-17 11:26:00,47.1,39.2,30.03,SW,225,2.7,8.5,74,0.00,,,0.25,WUHU21623XXSP,2014-12-17 19:26:00,
2014-12-17 11:31:00,47.3,39.4,30.02,SW,225,2.9,8.1,74,0.00,,,0.25,WUHU21623XXSP,2014-12-17 19:31:00,
2014-12-17 11:36:00,48.0,40.0,30.02,SW,225,1.1,8.1,74,0.00,,,0.25,WUHU21623XXSP,2014-12-17 19:36:00,
2014-12-17 11:41:00,48.4,40.0,30.01,SW,225,1.6,6.7,73,0.00,,,0.25,WUHU21623XXSP,2014-12-17 19:41:00,
2014-12-17 11:46:00,48.7,40.4,30.02,SW,225,0.0,8.7,73,0.00,,,0.25,WUHU21623XXSP,2014-12-17 19:46:00,
2014-12-17 11:51:00,49.1,40.8,30.01,SW,225,0.0,8.7,73,0.00,,,0.25,WUHU21623XXSP,2014-12-17 19:51:00,
2014-12-17 11:56:00,49.1,40.4,30.02,SW,225,0.0,5.4,72,0.00,,,0.25,WUHU21623XXSP,2014-12-17 19:56:00,
2014-12-17 12:01:00,49.1,40.4,30.01,WSW,247,0.0,7.6,72,0.00,,,0.25,WUHU21623XXSP,2014-12-17 20:01:00,
2014-12-17 12:06:00,49.1,40.4,30.01,WSW,247,0.0,7.6,72,0.00,,,0.25,WUHU21623XXSP,2014-12-17 20:06:00,
2014-12-17 12:11:00,48.9,39.9,30.01,WSW,247,2.5,7.2,71,0.00,,,0.25,WUHU21623XXSP,2014-12-17 20:11:00,
2014-12-17 12:16:00,48.9,39.9,30.01,WSW,247,0.0,5.4,71,0.00,,,0.25,WUHU21623XXSP,2014-12-17 20:16:00,
2014-12-17 12:21:00,49.3,40.3,30.00,WSW,247,0.0,6.3,71,0.00,,,0.25,WUHU21623XXSP,2014-12-17 20:21:00,
2014-12-17 12:26:00,49.5,40.4,30.01,WSW,247,1.6,6.3,71,0.00,,,0.25,WUHU21623XXSP,2014-12-17 20:26:00,
2014-12-17 12:31:00,50.2,41.5,30.01,WSW,247,0.0,5.1,72,0.00,,,0.25,WUHU21623XXSP,2014-12-17 20:31:00,
2014-12-17 12:36:00,50.5,41.9,30.01,WSW,247,0.0,3.4,72,0.00,,,0.25,WUHU21623XXSP,2014-12-17 20:36:00,
2014-12-17 12:41:00,50.4,41.3,30.01,WSW,247,3.4,4.3,71,0.00,,,0.25,WUHU21623XXSP,2014-12-17 20:41:00,
2014-12-17 12:46:00,50.2,40.8,30.01,WSW,247,0.0,8.7,70,0.00,,,0.25,WUHU21623XXSP,2014-12-17 20:46:00,
2014-12-17 12:51:00,50.2,40.8,30.00,SW,225,3.8,8.7,70,0.00,,,0.25,WUHU21623XXSP,2014-12-17 20:51:00,
2014-12-17 12:56:00,50.4,40.6,30.00,SW,225,1.1,8.5,69,0.00,,,0.25,WUHU21623XXSP,2014-12-17 20:56:00,
2014-12-17 13:01:00,50.7,40.9,29.99,WSW,247,1.3,6.9,69,0.00,,,0.25,WUHU21623XXSP,2014-12-17 21:01:00,
2014-12-17 13:06:00,50.5,40.8,30.00,West,270,0.0,8.1,69,0.00,,,0.25,WUHU21623XXSP,2014-12-17 21:06:00,
2014-12-17 13:11:00,50.4,40.6,30.00,WSW,247,0.0,9.2,69,0.00,,,0.25,WUHU21623XXSP,2014-12-17 21:11:00,
2014-12-17 13:16:00,50.4,40.6,30.00,WSW,247,4.5,9.2,69,0.00,,,0.25,WUHU21623XXSP,2014-12-17 21:16:00,
2014-12-17 13:21:00,50.2,40.4,30.00,SW,225,6.0,11.2,69,0.00,,,0.25,WUHU21623XXSP,2014-12-17 21:21:00,
2014-12-17 13:26:00,50.0,40.2,30.00,WSW,247,8.1,11.2,69,0.00,,,0.25,WUHU21623XXSP,2014-12-17 21:26:00,
2014-12-17 13:31:00,49.8,40.1,30.00,WSW,247,8.3,11.0,69,0.00,,,0.25,WUHU21623XXSP,2014-12-17 21:31:00,
2014-12-17 13:36:00,49.8,40.1,30.00,SW,225,0.0,11.0,69,0.00,,,0.25,WUHU21623XXSP,2014-12-17 21:36:00,
2014-12-17 13:41:00,49.6,40.3,30.00,SW,225,2.0,13.0,70,0.00,,,0.25,WUHU21623XXSP,2014-12-17 21:41:00,
2014-12-17 13:46:00,49.8,40.5,30.00,WSW,247,10.1,13.0,70,0.00,,,0.25,WUHU21623XXSP,2014-12-17 21:46:00,
2014-12-17 13:51:00,49.8,40.5,30.00,SW,225,0.0,11.0,70,0.00,,,0.25,WUHU21623XXSP,2014-12-17 21:51:00,
2014-12-17 13:56:00,50.0,40.6,30.00,SW,225,2.5,8.5,70,0.00,,,0.25,WUHU21623XXSP,2014-12-17 21:56:00,
2014-12-17 14:02:00,49.8,40.5,30.01,WSW,247,4.5,7.4,70,0.00,,,0.25,WUHU21623XXSP,2014-12-17 22:02:00,
2014-12-17 14:07:00,50.0,40.6,30.01,WSW,247,2.5,7.4,70,0.00,,,0.25,WUHU21623XXSP,2014-12-17 22:07:00,
2014-12-17 14:12:00,49.8,40.5,30.01,WSW,247,0.0,8.3,70,0.00,,,0.25,WUHU21623XXSP,2014-12-17 22:12:00,
2014-12-17 14:17:00,49.8,40.5,30.01,WSW,247,0.0,8.3,70,0.00,,,0.25,WUHU21623XXSP,2014-12-17 22:17:00,
2014-12-17 14:22:00,49.8,40.8,30.01,WSW,247,0.0,8.3,71,0.00,,,0.25,WUHU21623XXSP,2014-12-17 22:22:00,
2014-12-17 14:27:00,50.2,41.2,30.01,WSW,247,2.7,6.7,71,0.00,,,0.25,WUHU21623XXSP,2014-12-17 22:27:00,
2014-12-17 14:32:00,50.4,41.3,30.01,WSW,247,0.0,6.0,71,0.00,,,0.25,WUHU21623XXSP,2014-12-17 22:32:00,
2014-12-17 14:37:00,50.2,40.8,30.01,WSW,247,0.0,6.5,70,0.00,,,0.25,WUHU21623XXSP,2014-12-17 22:37:00,
2014-12-17 14:42:00,50.4,41.3,30.01,WSW,247,0.0,6.5,71,0.00,,,0.25,WUHU21623XXSP,2014-12-17 22:42:00,
2014-12-17 14:47:00,50.2,41.2,30.01,WSW,247,4.5,6.9,71,0.00,,,0.25,WUHU21623XXSP,2014-12-17 22:47:00,
2014-12-17 14:52:00,49.8,40.8,30.01,WSW,247,0.0,6.9,71,0.00,,,0.25,WUHU21623XXSP,2014-12-17 22:52:00,
2014-12-17 14:57:00,49.8,40.8,30.01,WSW,247,0.0,6.0,71,0.00,,,0.25,WUHU21623XXSP,2014-12-17 22:57:00,
2014-12-17 15:02:00,49.8,40.8,30.01,WSW,247,0.9,2.7,71,0.00,,,0.25,WUHU21623XXSP,2014-12-17 23:02:00,
2014-12-17 15:07:00,49.8,40.8,30.02,WSW,247,0.0,2.7,71,0.00,,,0.25,WUHU21623XXSP,2014-12-17 23:07:00,